User: anonymous
Location: Unspecified
(0.0000°N, 0.0000°E)
Time: 00:52:41
(UTC+02:00)
Language:

Cosmos 1703 Rocket - Orbit

View from above orbital plane
View from above orbital plane
View from above satellite
View from above satellite

Ground track
Ground track

The orbit data is extracted from the following two-line orbital elements,

1 16263U 85108B   14108.54298411  .00000514  00000-0  61110-4 0  6280
2 16263 082.5016 118.0783 0020508 188.4344 287.1473 14.82361639533137
Epoch (UTC): 18 April 2014 13:01:53
Eccentricity: 0.0020508
inclination: 82.5016°
perigee height: 607 km
apogee height: 636 km
right ascension of ascending node: 118.0783°
argument of perigee: 188.4344°
revolutions per day: 14.82361639
mean anomaly at epoch: 287.1473°
orbit number at epoch: 53313

The dashed part of the orbit path shows where the satellite is in the earth's shadow,  

DLR